• In Belarus
  • List of Countries
  • For 7 days
  • Water Temperature
  • Satellite Maps
  • Weather Map
  • Weather Widgets
  • user-avatar
    Login

    Hourly Weather Katerini

    Today, 16 December, Sunday

    Time Temperature Precipitation Wind Pressure Humidity
    00:00 +12°C° 0.2 mm 1 mps 755 mmHg 92%
    01:00 +12°C° 0.2 mm 1 mps 755 mmHg 92%
    02:00 +12°C° 0 mm 1 mps 755 mmHg 92%
    03:00 +12°C° 0.2 mm 1 mps 755 mmHg 92%
    04:00 +12°C° 0.2 mm 1 mps 755 mmHg 93%
    05:00 +11°C° 0.2 mm 1 mps 755 mmHg 93%
    06:00 +11°C° 0.2 mm 1 mps 755 mmHg 93%
    07:00 +11°C° 0.2 mm 1 mps 755 mmHg 92%
    08:00 +11°C° 0 mm 1 mps 754 mmHg 91%
    09:00 +12°C° 0.1 mm 1 mps 755 mmHg 87%
    10:00 +13°C° 0.1 mm 2 mps 755 mmHg 82%
    11:00 +14°C° 0.1 mm 2 mps 755 mmHg 78%
    12:00 +13°C° 0.1 mm 3 mps 755 mmHg 76%
    13:00 +13°C° 0.1 mm 3 mps 755 mmHg 74%
    14:00 +13°C° 0.1 mm 4 mps 755 mmHg 72%
    15:00 +12°C° 0.1 mm 4 mps 755 mmHg 72%
    16:00 +11°C° 0.1 mm 4 mps 756 mmHg 72%
    17:00 +9°C° 0.1 mm 5 mps 756 mmHg 72%
    18:00 +8°C° 0 mm 5 mps 757 mmHg 73%
    19:00 +8°C° 0 mm 4 mps 757 mmHg 74%
    20:00 +7°C° 0 mm 4 mps 758 mmHg 74%
    21:00 +6°C° 0 mm 4 mps 758 mmHg 74%
    22:00 +6°C° 0 mm 4 mps 758 mmHg 74%
    23:00 +5°C° 0 mm 4 mps 759 mmHg 74%

    Tomorrow, 17 December, Monday

    Time Temperature Precipitation Wind Pressure Humidity
    00:00 +5°C° 0 mm 4 mps 759 mmHg 74%
    01:00 +5°C° 0 mm 3 mps 759 mmHg 73%
    02:00 +5°C° 0 mm 3 mps 759 mmHg 73%
    03:00 +5°C° 0 mm 3 mps 759 mmHg 72%
    04:00 +5°C° 0 mm 3 mps 759 mmHg 71%
    05:00 +5°C° 0 mm 3 mps 759 mmHg 70%
    06:00 +5°C° 0 mm 3 mps 759 mmHg 69%
    07:00 +6°C° 0 mm 2 mps 759 mmHg 68%
    08:00 +6°C° 0 mm 2 mps 759 mmHg 68%
    09:00 +7°C° 0 mm 2 mps 759 mmHg 64%
    10:00 +8°C° 0 mm 2 mps 759 mmHg 60%
    11:00 +10°C° 0 mm 1 mps 759 mmHg 56%
    12:00 +10°C° 0 mm 1 mps 758 mmHg 53%
    13:00 +11°C° 0 mm 1 mps 758 mmHg 50%
    14:00 +12°C° 0 mm 1 mps 757 mmHg 47%
    15:00 +11°C° 0.1 mm 1 mps 757 mmHg 50%
    16:00 +11°C° 0.1 mm 1 mps 757 mmHg 53%
    17:00 +10°C° 0.1 mm 1 mps 757 mmHg 57%
    18:00 +9°C° 0.1 mm 2 mps 757 mmHg 59%
    19:00 +8°C° 0.1 mm 2 mps 757 mmHg 61%
    20:00 +8°C° 0.1 mm 2 mps 757 mmHg 63%
    21:00 +8°C° 0.2 mm 2 mps 757 mmHg 65%
    22:00 +8°C° 0.2 mm 2 mps 757 mmHg 68%
    23:00 +7°C° 0.2 mm 3 mps 757 mmHg 70%

    Day after tomorrow, 18 December, Tuesday

    Time Temperature Precipitation Wind Pressure Humidity
    00:00 +7°C° 0.7 mm 3 mps 757 mmHg 73%
    01:00 +7°C° 0.7 mm 3 mps 757 mmHg 76%
    02:00 +7°C° 0.7 mm 3 mps 757 mmHg 79%
    03:00 +6°C° 1.4 mm 4 mps 757 mmHg 81%
    04:00 +5°C° 1.4 mm 4 mps 757 mmHg 84%
    05:00 +5°C° 1.4 mm 4 mps 757 mmHg 86%
    06:00 +5°C° 0.8 mm 5 mps 758 mmHg 85%
    07:00 +5°C° 0.8 mm 5 mps 758 mmHg 84%
    08:00 +5°C° 0.8 mm 5 mps 759 mmHg 84%
    09:00 +5°C° 0.5 mm 5 mps 759 mmHg 82%
    10:00 +5°C° 0.5 mm 5 mps 759 mmHg 81%
    11:00 +5°C° 0.5 mm 5 mps 760 mmHg 80%
    12:00 +6°C° 0.3 mm 5 mps 760 mmHg 79%
    13:00 +6°C° 0.3 mm 5 mps 760 mmHg 79%
    14:00 +6°C° 0.3 mm 5 mps 760 mmHg 78%
    15:00 +6°C° 0.1 mm 5 mps 760 mmHg 79%
    16:00 +6°C° 0.1 mm 4 mps 760 mmHg 79%
    17:00 +6°C° 0.1 mm 4 mps 761 mmHg 79%
    18:00 +5°C° 0.1 mm 4 mps 761 mmHg 79%
    19:00 +5°C° 0.1 mm 4 mps 762 mmHg 79%
    20:00 +4°C° 0.1 mm 4 mps 763 mmHg 79%
    21:00 +5°C° 0 mm 4 mps 763 mmHg 79%
    22:00 +5°C° 0 mm 4 mps 764 mmHg 78%
    23:00 +5°C° 0 mm 4 mps 764 mmHg 78%

    19 December, Wednesday

    Time Temperature Precipitation Wind Pressure Humidity
    00:00 +4°C° 0 mm 3 mps 764 mmHg 78%
    01:00 +4°C° 0 mm 3 mps 764 mmHg 78%
    02:00 +4°C° 0 mm 3 mps 764 mmHg 78%
    03:00 +4°C° 0 mm 3 mps 764 mmHg 78%
    04:00 +3°C° 0 mm 3 mps 764 mmHg 79%
    05:00 +3°C° 0 mm 3 mps 764 mmHg 79%
    06:00 +3°C° 0 mm 3 mps 765 mmHg 79%
    07:00 +3°C° 0 mm 3 mps 765 mmHg 79%
    08:00 +4°C° 0 mm 2 mps 765 mmHg 79%
    09:00 +5°C° 0 mm 2 mps 766 mmHg 77%
    10:00 +6°C° 0 mm 2 mps 766 mmHg 75%
    11:00 +8°C° 0 mm 1 mps 766 mmHg 72%
    12:00 +9°C° 0 mm 1 mps 765 mmHg 72%
    13:00 +10°C° 0 mm 1 mps 765 mmHg 71%
    14:00 +10°C° 0 mm 1 mps 764 mmHg 70%
    15:00 +9°C° 0 mm 1 mps 764 mmHg 71%
    16:00 +8°C° 0 mm 0 mps 765 mmHg 73%
    17:00 +7°C° 0 mm 0 mps 765 mmHg 74%
    18:00 +7°C° 0 mm 0 mps 765 mmHg 74%
    19:00 +7°C° 0 mm 1 mps 765 mmHg 75%
    20:00 +7°C° 0 mm 1 mps 766 mmHg 75%
    21:00 +7°C° 0 mm 1 mps 766 mmHg 76%
    22:00 +7°C° 0 mm 1 mps 766 mmHg 77%
    23:00 +7°C° 0 mm 1 mps 766 mmHg 77%

    20 December, Thursday

    Time Temperature Precipitation Wind Pressure Humidity
    00:00 +7°C° 0 mm 1 mps 766 mmHg 78%
    01:00 +7°C° 0 mm 1 mps 766 mmHg 79%
    02:00 +7°C° 0 mm 1 mps 766 mmHg 80%
    03:00 +7°C° 0 mm 1 mps 766 mmHg 82%
    04:00 +6°C° 0 mm 1 mps 766 mmHg 83%
    05:00 +6°C° 0 mm 1 mps 766 mmHg 84%
    06:00 +6°C° 0 mm 1 mps 766 mmHg 85%
    07:00 +6°C° 0 mm 1 mps 766 mmHg 85%
    08:00 +6°C° 0 mm 1 mps 766 mmHg 86%
    09:00 +8°C° 0 mm 1 mps 766 mmHg 85%
    10:00 +9°C° 0 mm 1 mps 766 mmHg 84%
    11:00 +10°C° 0 mm 1 mps 767 mmHg 83%
    12:00 +10°C° 0 mm 1 mps 766 mmHg 83%
    13:00 +11°C° 0 mm 1 mps 766 mmHg 82%
    14:00 +11°C° 0 mm 1 mps 765 mmHg 82%
    15:00 +10°C° 0 mm 1 mps 765 mmHg 84%
    16:00 +10°C° 0 mm 1 mps 765 mmHg 85%
    17:00 +9°C° 0 mm 1 mps 765 mmHg 87%
    18:00 +9°C° 0 mm 1 mps 765 mmHg 87%
    19:00 +9°C° 0 mm 1 mps 766 mmHg 87%
    20:00 +9°C° 0 mm 1 mps 766 mmHg 87%
    21:00 +9°C° 0 mm 1 mps 766 mmHg 86%
    22:00 +9°C° 0 mm 1 mps 766 mmHg 85%
    23:00 +8°C° 0 mm 1 mps 766 mmHg 84%

    21 December, Friday

    Time Temperature Precipitation Wind Pressure Humidity
    00:00 +8°C° 0 mm 1 mps 766 mmHg 84%
    01:00 +8°C° 0 mm 1 mps 766 mmHg 84%
    02:00 +8°C° 0 mm 1 mps 766 mmHg 84%
    03:00 +8°C° 0 mm 1 mps 765 mmHg 84%
    04:00 +8°C° 0 mm 1 mps 765 mmHg 85%
    05:00 +8°C° 0 mm 1 mps 764 mmHg 85%
    06:00 +8°C° 0 mm 1 mps 764 mmHg 86%
    07:00 +7°C° 0 mm 2 mps 764 mmHg 86%
    08:00 +8°C° 0 mm 2 mps 764 mmHg 86%
    09:00 +8°C° 0.1 mm 2 mps 764 mmHg 84%
    10:00 +10°C° 0.1 mm 1 mps 764 mmHg 83%
    11:00 +11°C° 0.1 mm 1 mps 765 mmHg 81%
    12:00 +12°C° 0 mm 1 mps 764 mmHg 80%
    13:00 +13°C° 0 mm 1 mps 764 mmHg 79%
    14:00 +13°C° 0 mm 2 mps 763 mmHg 78%
    15:00 +13°C° 0 mm 2 mps 764 mmHg 79%
    16:00 +12°C° 0 mm 2 mps 764 mmHg 81%
    17:00 +10°C° 0 mm 2 mps 764 mmHg 83%
    18:00 +10°C° 0 mm 2 mps 765 mmHg 83%
    19:00 +9°C° 0 mm 2 mps 765 mmHg 84%
    20:00 +9°C° 0 mm 2 mps 766 mmHg 84%
    21:00 +8°C° 0 mm 2 mps 766 mmHg 83%
    22:00 +8°C° 0 mm 2 mps 766 mmHg 82%
    23:00 +8°C° 0 mm 2 mps 766 mmHg 82%
    Show more